TimeCDT,TemperatureF,Dew PointF,Humidity,Sea Level PressureIn,VisibilityMPH,Wind Direction,Wind SpeedMPH,Gust SpeedMPH,PrecipitationIn,Events,Conditions,WindDirDegrees,DateUTC
12:52 AM,69.1,66.9,93,29.97,5.0,Calm,Calm,-,0.00,,Overcast,0,2013-07-27 05:52:00
1:52 AM,69.1,66.9,93,29.98,10.0,WSW,8.1,-,0.00,Rain,Light Rain,240,2013-07-27 06:52:00
2:52 AM,69.1,66.9,93,29.96,8.0,SSW,5.8,-,0.00,,Overcast,200,2013-07-27 07:52:00
3:20 AM,69.8,66.2,88,29.97,4.0,SSW,8.1,-,0.01,Rain,Light Rain,210,2013-07-27 08:20:00
3:49 AM,69.8,66.2,88,29.97,10.0,SW,11.5,-,0.03,,Overcast,220,2013-07-27 08:49:00
3:52 AM,69.1,66.0,90,29.96,10.0,SW,9.2,-,0.03,,Overcast,230,2013-07-27 08:52:00
4:05 AM,69.8,66.2,88,29.96,10.0,SW,9.2,-,N/A,,Overcast,230,2013-07-27 09:05:00
4:52 AM,68.0,64.9,90,29.95,9.0,SW,12.7,-,0.01,Rain,Light Rain,220,2013-07-27 09:52:00
5:28 AM,66.2,64.4,94,29.96,10.0,SW,10.4,-,0.00,,Overcast,220,2013-07-27 10:28:00
5:52 AM,66.9,64.0,90,29.96,6.0,NW,3.5,-,0.01,Rain,Light Rain,310,2013-07-27 10:52:00
6:45 AM,66.2,64.4,94,29.97,10.0,West,3.5,-,0.00,,Overcast,260,2013-07-27 11:45:00
6:52 AM,66.9,64.9,93,29.96,10.0,West,4.6,-,0.00,,Overcast,270,2013-07-27 11:52:00
7:10 AM,68.0,66.2,94,29.97,10.0,West,3.5,-,0.01,,Mostly Cloudy,270,2013-07-27 12:10:00
7:30 AM,68.0,66.2,94,29.98,8.0,West,5.8,-,0.01,,Mostly Cloudy,280,2013-07-27 12:30:00
7:52 AM,69.1,66.0,90,29.98,9.0,NNW,6.9,-,0.01,,Overcast,340,2013-07-27 12:52:00
8:05 AM,69.8,66.2,88,29.99,10.0,NNW,8.1,-,N/A,,Overcast,340,2013-07-27 13:05:00
8:12 AM,69.8,66.2,88,29.99,10.0,North,5.8,-,N/A,,Overcast,350,2013-07-27 13:12:00
8:22 AM,71.6,64.4,78,29.99,10.0,North,6.9,-,N/A,,Mostly Cloudy,350,2013-07-27 13:22:00
8:52 AM,71.1,64.9,81,29.98,10.0,North,6.9,-,N/A,,Overcast,350,2013-07-27 13:52:00
9:32 AM,71.6,62.6,73,29.99,10.0,North,8.1,-,N/A,,Mostly Cloudy,360,2013-07-27 14:32:00
9:52 AM,72.0,63.0,73,29.98,10.0,NNW,8.1,-,N/A,,Mostly Cloudy,330,2013-07-27 14:52:00
10:03 AM,73.4,64.4,73,29.98,10.0,NW,6.9,-,N/A,,Scattered Clouds,320,2013-07-27 15:03:00
10:52 AM,73.9,64.0,71,29.97,10.0,NW,6.9,-,0.01,,Scattered Clouds,320,2013-07-27 15:52:00
11:52 AM,77.0,61.0,58,29.97,10.0,NW,12.7,-,N/A,,Mostly Cloudy,310,2013-07-27 16:52:00
12:52 PM,78.1,60.1,54,29.96,10.0,NW,13.8,-,N/A,,Scattered Clouds,320,2013-07-27 17:52:00
1:52 PM,79.0,60.1,52,29.95,10.0,WNW,12.7,17.3,N/A,,Partly Cloudy,290,2013-07-27 18:52:00
2:52 PM,77.0,57.0,50,29.95,10.0,WNW,10.4,-,N/A,,Mostly Cloudy,300,2013-07-27 19:52:00
3:52 PM,79.0,55.9,45,29.94,10.0,NNW,11.5,18.4,N/A,,Mostly Cloudy,330,2013-07-27 20:52:00
4:52 PM,77.0,53.1,43,29.94,10.0,NNW,10.4,-,N/A,,Partly Cloudy,340,2013-07-27 21:52:00
5:52 PM,77.0,53.1,43,29.94,10.0,NNW,11.5,-,N/A,,Clear,330,2013-07-27 22:52:00
6:52 PM,75.0,53.1,46,29.95,10.0,NNW,8.1,-,N/A,,Clear,340,2013-07-27 23:52:00
7:52 PM,70.0,53.1,55,29.96,10.0,North,5.8,-,N/A,,Clear,360,2013-07-28 00:52:00
8:52 PM,66.0,54.0,65,29.97,10.0,North,4.6,-,N/A,,Clear,360,2013-07-28 01:52:00
9:52 PM,63.0,55.0,75,29.99,10.0,North,4.6,-,N/A,,Clear,10,2013-07-28 02:52:00
10:52 PM,61.0,53.1,75,29.99,10.0,North,3.5,-,N/A,,Clear,10,2013-07-28 03:52:00
11:52 PM,57.0,54.0,89,30.00,10.0,Calm,Calm,-,N/A,,Clear,0,2013-07-28 04:52:00